Change the Weather History Date:

Tuesday, February 11, 2014

  Actual Average Record
Temperature  
Mean Temperature 33 °F 49 °F  
Max Temperature 36 °F 61 °F 82 °F (1954)
Min Temperature 29 °F 38 °F 17 °F (1955)
Degree Days  
Heating Degree Days 32 16  
Month to date heating degree days 288 186  
Since 1 July heating degree days 1926 1669  
Cooling Degree Days 0 0  
Month to date cooling degree days 0 0  
Year to date cooling degree days 0 4  
Moisture  
Dew Point 24 °F    
Average Humidity 67    
Maximum Humidity 85    
Minimum Humidity 49    
Precipitation  
Precipitation 0.53 in 0.14 in 1.15 in (1977)
Month to date precipitation 1.79 1.47  
Year to date precipitation 2.26 4.79  
Snow  
Snow 0.00 in - - ()
Month to date snowfall T  
Since 1 July snowfall T  
Snow Depth -    
Sea Level Pressure  
Sea Level Pressure 30.24 in    
Wind  
Wind Speed 10 mph (NNE)    
Max Wind Speed 86 mph    
Max Gust Speed 176 mph    
Visibility 7 miles    
Events Rain , Thunderstorm    
T = Trace of Precipitation, MM = Missing Value Source: NWS Daily Summary

Daily Weather History Graph

Daily Weather History Graph

Search for Another Location

Airport or City:

Trip Planner

Search our weather history database for the weather conditions in past years. The results will help you decide how hot, cold, wet, or windy it might be!

Date:

Astronomy

Feb. 11, 2014 Rise Set
Actual Time 7:05 AM CST 6:01 PM CST
Civil Twilight 6:39 AM CST 6:26 PM CST
Nautical Twilight 6:11 AM CST 6:55 PM CST
Astronomical Twilight 5:42 AM CST 7:24 PM CST
Moon 3:26 PM CST (2/11) 4:38 AM CST (2/11)
Length of Visible Light 11h 46m
Length of Day
10h 56m
Waxing Gibbous, 91% of the Moon is Illuminated
Feb 11
Waxing Gibbous
Feb 14
Full
Feb 22
Last Quarter
Mar 1
New
Mar 8
First Quarter

Hourly Weather History & Observations

Time (CST) Temp. Windchill Dew Point Humidity Pressure Visibility Wind Dir Wind Speed Gust Speed Precip Events Conditions
12:53 AM 34.0 °F 25.5 °F 21.9 °F 61% 30.25 in 10.0 mi NE 11.5 mph - N/A   Overcast
1:11 AM 33.8 °F 25.8 °F 21.2 °F 60% 30.23 in 10.0 mi NE 10.4 mph 19.6 mph N/A   Overcast
1:53 AM 34.0 °F 26.0 °F 21.9 °F 61% 30.25 in 10.0 mi NE 10.4 mph - N/A   Overcast
2:53 AM 34.0 °F 25.5 °F 21.0 °F 59% 30.25 in 10.0 mi NNE 11.5 mph 19.6 mph N/A   Overcast
3:53 AM 33.1 °F 24.9 °F 21.0 °F 61% 30.25 in 10.0 mi NE 10.4 mph - N/A   Overcast
4:53 AM 33.1 °F 26.1 °F 21.9 °F 64% 30.26 in 10.0 mi NNE 8.1 mph - N/A   Overcast
5:53 AM 33.1 °F 26.1 °F 21.0 °F 61% 30.27 in 10.0 mi NNE 8.1 mph - N/A   Overcast
6:53 AM 32.0 °F 23.6 °F 21.0 °F 64% 30.28 in 10.0 mi ENE 10.4 mph - N/A   Overcast
7:53 AM 32.0 °F 24.8 °F 19.0 °F 59% 30.30 in 10.0 mi NNE 8.1 mph - N/A   Overcast
8:23 AM 32.0 °F 26.4 °F 17.6 °F 55% 30.29 in 10.0 mi NE 5.8 mph - N/A   Overcast
8:53 AM 32.0 °F 23.6 °F 16.0 °F 52% 30.32 in 10.0 mi NE 10.4 mph 18.4 mph N/A   Overcast
9:53 AM 34.0 °F 25.0 °F 19.0 °F 54% 30.31 in 10.0 mi NNE 12.7 mph 18.4 mph N/A   Overcast
10:53 AM 35.1 °F 26.9 °F 19.9 °F 54% 30.32 in 10.0 mi NE 11.5 mph - N/A   Overcast
11:53 AM 35.1 °F 26.4 °F 19.0 °F 52% 30.28 in 10.0 mi NE 12.7 mph 17.3 mph N/A   Partly Cloudy
12:53 PM 35.1 °F 27.9 °F 19.0 °F 52% 30.23 in 10.0 mi NNE 9.2 mph - 0.00 in Rain Light Rain
1:53 PM 34.0 °F 26.6 °F 19.9 °F 56% 30.19 in 10.0 mi NNE 9.2 mph - 0.00 in Rain Light Rain
2:29 PM 33.8 °F - 23.0 °F 65% 30.20 in 9.0 mi Calm Calm - 0.01 in Rain , Thunderstorm Light Thunderstorms and Rain
2:49 PM 33.8 °F 30.8 °F 24.8 °F 70% 30.22 in 3.0 mi Variable 3.5 mph - 0.07 in Rain , Thunderstorm Light Freezing Rain
2:53 PM 33.1 °F 27.7 °F 24.1 °F 70% 30.22 in 4.0 mi East 5.8 mph - 0.08 in Rain , Thunderstorm Light Freezing Rain
3:27 PM 32.0 °F 28.7 °F 26.6 °F 80% 30.21 in 3.0 mi ENE 3.5 mph - 0.15 in Rain Light Freezing Rain
3:53 PM 32.0 °F 24.8 °F 26.1 °F 79% 30.20 in 5.0 mi NE 8.1 mph - 0.23 in Rain Light Freezing Rain
4:13 PM 32.0 °F 24.8 °F 26.6 °F 80% 30.20 in 6.0 mi NE 8.1 mph - 0.02 in Rain Light Freezing Rain
4:53 PM 30.9 °F 22.2 °F 27.0 °F 85% 30.23 in 5.0 mi North 10.4 mph - 0.03 in Rain Light Freezing Rain
5:05 PM 30.2 °F 21.9 °F 26.6 °F 86% 30.21 in 5.0 mi North 9.2 mph - 0.01 in Rain Light Freezing Rain
5:38 PM 30.2 °F 23.4 °F 26.6 °F 86% 30.21 in 3.0 mi North 6.9 mph - 0.04 in Rain Light Freezing Rain
5:51 PM 30.2 °F 19.8 °F 26.6 °F 86% 30.22 in 6.0 mi North 13.8 mph - 0.04 in Rain Light Freezing Rain
5:53 PM 30.0 °F 20.0 °F 26.1 °F 85% 30.25 in 6.0 mi NNW 12.7 mph - 0.04 in Rain Light Freezing Rain
6:53 PM 30.0 °F - 26.1 °F 85% 30.23 in 3.0 mi North - - 0.04 in Rain Light Freezing Rain
6:56 PM 30.2 °F - 26.6 °F 86% 30.21 in 3.0 mi North - - 0.01 in Rain Light Freezing Rain
7:03 PM 30.2 °F 9.0 °F 26.6 °F 86% 30.22 in 3.0 mi South 74.8 mph 176.1 mph 0.03 in Rain Light Freezing Rain
7:15 PM 28.4 °F 18.5 °F 26.6 °F 93% 30.22 in 2.0 mi North 11.5 mph - 0.04 in Rain Light Freezing Rain
7:39 PM 28.4 °F 18.5 °F 24.8 °F 86% 30.23 in 2.0 mi North 11.5 mph - 0.04 in Rain Light Freezing Rain
7:53 PM 28.9 °F 19.2 °F 25.0 °F 85% 30.25 in 2.0 mi North 11.5 mph - 0.04 in Rain Light Freezing Rain
7:57 PM 28.4 °F 19.7 °F 26.6 °F 93% 30.23 in 7.0 mi North 9.2 mph 16.1 mph 0.00 in Rain Light Freezing Rain
8:53 PM 30.0 °F 20.5 °F 27.0 °F 88% 30.25 in 6.0 mi North 11.5 mph - 0.02 in Rain Light Freezing Rain
9:18 PM 28.4 °F 18.0 °F 26.6 °F 93% 30.23 in 10.0 mi North 12.7 mph - 0.00 in Rain Light Freezing Rain
9:53 PM 28.9 °F 18.6 °F 25.0 °F 85% 30.26 in 8.0 mi North 12.7 mph - 0.01 in Rain Light Freezing Rain
10:23 PM 28.4 °F - 24.8 °F 86% 30.24 in 6.0 mi North - - 0.03 in Rain Light Freezing Rain
10:35 PM 28.4 °F - 24.8 °F 86% 30.23 in 6.0 mi North - - 0.04 in Rain Light Freezing Rain
10:46 PM 28.4 °F - 24.8 °F 86% 30.22 in 10.0 mi North - - 0.04 in Rain Light Freezing Rain
10:53 PM 28.9 °F - 24.1 °F 82% 30.24 in 10.0 mi North - - 0.04 in Rain Light Freezing Rain
11:30 PM 28.4 °F - 24.8 °F 86% 30.20 in 10.0 mi North - - 0.00 in Rain Light Freezing Rain
11:44 PM 28.4 °F 5.4 °F 24.8 °F 86% 30.20 in 10.0 mi South 84.0 mph 104.7 mph 0.00 in Rain Light Freezing Rain
11:53 PM 28.9 °F - 24.1 °F 82% 30.21 in 10.0 mi North - - 0.00 in Rain Light Freezing Rain